Home > Weather > Green Bay > Past weeks

Flag for USA Past Weather in Green Bay, Wisconsin, USA — Yesterday and Last 2 Weeks

Now
64 °F

Clear.


Feels Like: 64 °F
Forecast: 56 / 74 °F
Wind: No wind

Location: Austin Straubel International Airport

Current Time: May 30, 2016 at 11:12:12 PM

Latest Report: May 30, 2016 at 10:53 PM


Visibility: 10 mi

Pressure: 29.98 "Hg

Humidity: 81%

Dew Point: 58 °F

Location of Green BayLocation

Past Weather in Green Bay — Graph

°F

Green Bay Temperature Yesterday

Maximum temperature yesterday: 75 °F (at 5:53 PM)
Minimum temperature yesterday: 64 °F (at 5:53 AM)
Average temperature yesterday: 69 °F

High & Low Weather Summary for the Past Weeks

 TemperatureHumidityPressure
High85 °F (May 23, 3:53 PM)100% (May 26, 6:53 AM)30.33 "Hg (May 26, 6:53 AM)
Low36 °F (May 18, 4:53 AM)21% (May 21, 2:53 PM)29.78 "Hg (May 26, 5:53 PM)
Average64 °F62%30.01 "Hg
* Reported May 15 8:53 PM — May 30 8:53 PM, Green Bay, Weather by CustomWeather, © 2016

Note: Actual official high and low records may vary slightly from our data, if they occured in-between our weather recording intervals... More about our weather records

Advertising

Green Bay Weather History for the Previous 24 Hours

Scroll right to see more
 ConditionsComfort  
Time TempWeatherWind HumidityBarometerVisibility
8:53 PM
Mon, May 30
70 °FSunny.3 mph73%29.96 "Hg10 mi
7:53 PM76 °FSunny.3 mph52%29.96 "Hg10 mi
6:53 PM80 °FSunny.3 mph36%29.95 "Hg10 mi
5:53 PM81 °FSunny.5 mph34%29.95 "Hg10 mi
4:53 PM81 °FSunny.6 mph35%29.96 "Hg10 mi
3:53 PM80 °FPassing clouds.9 mph36%29.96 "Hg10 mi
2:53 PM79 °FPassing clouds.10 mph36%29.98 "Hg10 mi
1:53 PM79 °FSunny.10 mph38%29.99 "Hg10 mi
12:53 PM78 °FPassing clouds.12 mph42%30.00 "Hg10 mi
11:53 AM77 °FSunny.8 mph42%29.99 "Hg10 mi
10:53 AM76 °FSunny.9 mph50%30.00 "Hg10 mi
9:53 AM74 °FSunny.6 mph56%30.00 "Hg10 mi
8:53 AM71 °FSunny.5 mph66%29.99 "Hg10 mi
7:53 AM66 °FSunny.7 mph78%30.00 "Hg10 mi
6:53 AM62 °FSunny.No wind86%29.98 "Hg10 mi
5:53 AM58 °FClear.No wind93%29.97 "Hg10 mi
4:53 AM58 °FClear.5 mph93%29.96 "Hg10 mi
3:53 AM61 °FPassing clouds.3 mph87%29.96 "Hg10 mi
2:53 AM62 °FClear.6 mph80%29.95 "Hg10 mi
1:53 AM61 °FClear.3 mph87%29.94 "Hg10 mi
12:53 AM63 °FClear.3 mph81%29.95 "Hg10 mi
11:53 PM
Sun, May 29
66 °FClear.6 mph73%29.94 "Hg10 mi
Weather by CustomWeather, © 2016

See weather overviewHow to use our weather pages